Home > Weather > Umm al-Quwain > Past weeks

Flag for United Arab Emirates Weather for the Past 2 Weeks in Umm al-Quwain, Umm al-Quwain, United Arab Emirates

Now
63 °F

Passing clouds.


Feels Like: 63 °F
Forecast: 65 / 73 °F
Wind: 3 mph from South

Location: Sharjah International Airport

Current Time: Feb 14, 2016 at 4:12:42 AM

Latest Report: Feb 14, 2016 at 3:00 AM


Visibility: N/A

Pressure: 30.07 "Hg

Humidity: 77%

Dew point: 55 °F

Location of Umm al-QuwainLocation

Historic Weather in Umm al-Quwain — Graph

°F

Umm al-Quwain Temperature Yesterday

Maximum temperature yesterday: 73 °F (at 12:00 PM)
Minimum temperature yesterday: 59 °F (at 6:00 AM)
Average temperature yesterday: 67 °F

High & Low Weather Summary for the Past Weeks

 TemperatureHumidityPressure
High91 °F (Feb 5, 5:00 PM)94% (Feb 7, 6:00 AM)30.27 "Hg (Feb 7, 6:00 AM)
Low50 °F (Feb 6, 4:00 AM)16% (Feb 5, 5:00 PM)29.92 "Hg (Feb 9, 7:00 AM)
Average65 °F59%30.09 "Hg
* Reported Jan 30 3:00 AM — Feb 14 3:00 AM, Umm al-Quwain, Weather by CustomWeather, © 2016

Note: Actual official high and low records may vary slightly from our data, if they occured in-between our weather recording intervals... More about our weather records

Advertising

Umm al-Quwain Weather History for the Previous 24 Hours

 ConditionsComfort  
Time TempWeatherWind HumidityBarometerVisibility
3:00 AM
Sun, Feb 14
63 °FPassing clouds.3 mph77%30.07 "HgN/A
2:00 AM64 °FClear.5 mph78%30.07 "Hg10 mi
1:00 AM64 °FClear.2 mph73%30.07 "Hg10 mi
12:00 AM66 °FClear.2 mph73%30.09 "Hg10 mi
11:00 PM
Sat, Feb 13
66 °FClear.3 mph73%30.09 "Hg10 mi
10:00 PM68 °FClear.5 mph69%30.09 "Hg10 mi
9:00 PM68 °FClear.5 mph69%30.09 "Hg10 mi
8:00 PM68 °FClear.6 mph69%30.09 "Hg10 mi
7:00 PM70 °FClear.6 mph64%30.07 "Hg10 mi
6:00 PM70 °FSunny.10 mph64%30.04 "Hg10 mi
5:00 PM72 °FSunny.10 mph57%30.04 "Hg10 mi
4:00 PM72 °FMild.12 mph57%30.04 "HgN/A
3:00 PM72 °FScattered clouds.9 mph57%30.04 "HgN/A
2:00 PM72 °FScattered clouds.10 mph57%30.07 "HgN/A
1:00 PM72 °FScattered clouds.3 mph53%30.07 "HgN/A
12:00 PM73 °FScattered clouds.5 mph47%30.09 "HgN/A
11:00 AM72 °FPassing clouds.No wind53%30.12 "HgN/A
10:00 AM68 °FPassing clouds.3 mph64%30.12 "HgN/A
9:00 AM64 °FPassing clouds.3 mph68%30.12 "HgN/A
8:00 AM59 °FPassing clouds.5 mph77%30.09 "HgN/A
7:00 AM59 °FPassing clouds.5 mph77%30.09 "HgN/A
6:00 AM59 °FPassing clouds.8 mph77%30.07 "HgN/A
4:00 AM61 °FClear.10 mph72%30.04 "Hg10 mi
Weather by CustomWeather, © 2016

See weather overviewHow to use our weather pages